NILESAT 301

Last updated on Sun Jun 21 2026 00:03:08 GMT+0000 (Coordinated Universal Time)

1 52817U 22061A 26171.39059714 -.00000062 00000+0 00000+0 0 9996 2 52817 0.0507 20.7867 0004675 36.9855 344.4364 1.00271181 14762
UTC large
Height (km)
Speed (km/s)
/
Latitude / Longitude
Inclination (degrees)
Orbital Period (minutes)
Azimuth
Elevation
Range (km)
Doppler Factor

Next 0 passes for location: London (51.5072 / 0.1276)

No passes found over London.
NILESAT 301